STARLINK-32741, 62526

Orbit data source: Space-Track

STARLINK-32741, 62526 is a payload satellite owned by SpaceX/Seattle (US) in LEO that was launched on Wed, 08 Jan 2025 UTC via an FALCON 9 launch vehicle from the Air Force Eastern Test Range (AFETR). Payload-class satellites include a variety of spacecraft equipped with specific instruments for various scientific and technological missions. These include communications satellites like Starlink; space stations such as the ISS; scientific satellites like the Hubble; Earth observation satellites from companies like Planet Labs, Umbra, and HawkEye 360; GPS; miniature CubeSats for education and research; and military/defense satellites.

Loading next visibility...
Identifier
62526, 2025-004R
Orbit
LEO
Country
Flag of USUS
Related business
Manufacturer
SpaceX/Seattle
Mission
Operational Commercial Communications
Bus & Motor
STARLINK V2M, Unknown motor
Mass
730 kg wet, ~700 kg dry
Launch date (UTC)
2025-01-08 (10 months ago)
Launch vehicle
FALCON 9
Launch site
Air Force Eastern Test Range (AFETR)
Object type
Payload
Rocket body
Debris
Shape & HBR
Box + 2 Pan, 17.7 m
Radar Cross Section
33.884 m², Large (>1 m²)

Expand to show TLE details & history
Last TLE update: 11 hours ago

TLE from 11 hours ago
0 STARLINK-32741
1 62526U 25004R   25308.71898324  .00036595  00000-0  13321-2 0  9992
2 62526  42.9997 202.3780 0001985 286.8272  73.2361 15.27595001 47382
Epoch: 2025-11-04T17:15Z
TLE epoch observation values (Epoch: 2025-11-04T17:15:20.151Z)
Latitude
-0.0001°
Longitude
-100.65804°
Altitude
482.387 km
Speed
7.626 km/s
True Right ascension
13h 29m 30s
True Declination
0° 00' 00"
Sunlit
Object was in daylight at epoch
Visualization orbit readout
Latitude
Unknown
Longitude
Unknown
Altitude
Unknown
Speed
Unknown
Apparent Right ascension
Unknown
Apparent Declination
Unknown
Sunlit
N/A
Visualization observer readout
Local Sidereal Time
00:02:06
Azimuth
Unknown
Elevation
Unknown
Doppler factor
Unknown
Orbital elements
Apogee altitude
486.312 km
Perigee altitude
483.587 km
Semi-major axis
6,863.086 km
Eccentricity
0.0002
Inclination
42.9997°
RAAN
202.378°
Arg. of periapsis
286.8272°
True anomaly
73.25788°
Mean anomaly
73.2361°
Eccentric anomaly
73.24699°
Mean motion
3.81737 °/min
Orbital period
94.31 mins
BSTAR
0.0013321
Loading maneuver chart data...
Computing Atmospheric mass density...
Loading historical data...
Loading historical data...
Loading historical data...
Loading historical data...
Loading historical data...
Loading historical data...
Loading historical data...

Documentation

Showing up to 5 results
|